Simultaneous Nadir Overpasses (SNOs) Predictions

Prediction of SNOs between METOP-C and LANDSAT-8 Satellite Orbit:

Table of predicted SNOs for the next 14.0 days since TLE Epoch: 6/25/2022
Index Date (METOP-C) Time (METOP-C) Lat,Lon (METOP-C) SZA (METOP-C ) Date (LANDSAT-8) Time (LANDSAT-8) Lat,Lon (LANDSAT-8) SZA (LANDSAT-8 ) Distance(km) Time Diff (sec)
1 06/25/2022 05:40:15 -81.17, -44.23 120.03 06/25/2022 05:40:22 -81.17, -44.26 120.03 0.57 7
2 06/25/2022 06:30:53 81.19, 123.75 60.06 06/25/2022 06:29:47 81.20, 123.88 60.05 2.42 66
3 06/28/2022 00:24:26 80.64,-156.14 58.59 06/28/2022 00:25:39 80.41,-155.05 58.51 33.21 73
4 06/28/2022 01:14:36 -81.18, 22.40 119.92 06/28/2022 01:14:36 -81.19, 22.46 119.90 1.35 0
5 06/28/2022 02:05:14 81.20,-169.66 60.17 06/28/2022 02:04:02 81.19,-169.80 60.12 2.43 72
6 06/30/2022 19:58:18 81.16, -79.12 60.15 06/30/2022 19:59:26 81.16, -79.24 60.16 2.02 68
7 06/30/2022 20:48:59 -81.18, 88.61 119.80 06/30/2022 20:48:52 -81.18, 88.73 119.79 2.13 7
8 07/03/2022 15:32:40 81.17, -12.59 60.36 07/03/2022 15:33:41 81.16, -12.71 60.37 2.06 61
9 07/03/2022 16:23:21 -81.18, 155.16 119.59 07/03/2022 16:23:07 -81.19, 155.29 119.58 2.22 14
10 07/06/2022 11:07:02 81.17, 53.92 60.62 07/06/2022 11:07:56 81.16, 53.74 60.62 3.07 54



Historial Predications of SNOs between METOP-C and LANDSAT-8
